GW3382 Weather Reports


time (UTC)temp
F
wind
direction
speed
knots
gust
knots
rain 1hr
in
rain 24hr
in
rain mn
in
humidity
%
barometer
mb
20240723202749 86 217 7.8 8.7 0.00 0.00 0.00 86 1022.6
20240723202247 86 229 2.6 8.7 0.00 0.00 0.00 86 1022.3
20240723201747 86 193 5.2 7.8 0.00 0.00 0.00 88 1022.6
20240723201246 86 244 4.3 8.7 0.00 0.00 0.00 87 1022.6
20240723200745 86 224 2.6 7.8 0.00 0.00 0.00 86 1022.6
20240723200243 86 224 5.2 7.8 0.00 0.00 0.00 87 1023.0
20240723195742 85 250 3.5 7.8 0.00 0.00 0.00 88 1023.0
20240723195240 85 241 2.6 7.8 0.00 0.00 0.00 87 1023.0
20240723194739 87 235 3.5 7.0 0.00 0.00 0.00 85 1023.0
20240723194237 86 213 4.3 7.0 0.00 0.00 0.00 84 1023.0
20240723193735 86 218 7.0 7.8 0.00 0.00 0.00 85 1022.6
20240723193233 86 243 7.8 7.8 0.00 0.00 0.00 86 1023.0
20240723192731 86 220 2.6 7.8 0.00 0.00 0.00 85 1023.0
20240723192230 85 219 6.1 7.0 0.00 0.00 0.00 85 1023.0
20240723191729 86 202 2.6 7.8 0.00 0.00 0.00 85 1023.3
20240723191229 86 231 7.0 7.0 0.00 0.00 0.00 83 1023.0
20240723190727 86 230 5.2 7.8 0.00 0.00 0.00 82 1023.0
20240723190226 86 223 8.7 8.7 0.00 0.00 0.00 82 1023.3
20240723185725 86 217 5.2 8.7 0.00 0.00 0.00 83 1023.0
20240723185223 86 224 6.1 7.8 0.00 0.00 0.00 83 1023.3
20240723184721 86 230 5.2 8.7 0.00 0.00 0.00 83 1023.0
20240723184220 84 225 6.1 7.8 0.00 0.00 0.00 84 1022.6
20240723183719 84 195 7.0 7.8 0.00 0.00 0.00 88 1023.0
20240723183218 84 175 7.0 7.8 0.00 0.00 0.00 88 1023.0
20240723182716 84 191 7.0 7.8 0.00 0.00 0.00 87 1023.0
20240723182216 83 187 6.1 7.8 0.00 0.00 0.00 87 1023.0
20240723181715 83 168 6.1 9.6 0.00 0.00 0.00 90 1023.3
20240723181213 83 176 7.0 8.7 0.00 0.00 0.00 89 1023.0
20240723180710 83 173 6.1 8.7 0.00 0.00 0.00 89 1023.3
20240723180210 83 180 7.0 7.8 0.00 0.00 0.00 90 1023.3
20240723175705 84 176 7.8 8.7 0.00 0.00 0.00 89 1023.3
20240723175204 84 174 8.7 8.7 0.00 0.00 0.00 88 1023.3
20240723174702 85 201 6.1 8.7 0.00 0.00 0.00 83 1023.3
20240723174200 85 193 5.2 7.8 0.00 0.00 0.00 82 1023.6
20240723173700 85 230 7.0 8.7 0.00 0.00 0.00 84 1023.6
20240723173158 85 220 4.3 8.7 0.00 0.00 0.00 85 1023.6
20240723172656 86 213 4.3 8.7 0.00 0.00 0.00 86 1023.6
20240723172155 85 223 5.2 8.7 0.00 0.00 0.00 87 1023.6
20240723171655 85 231 6.1 9.6 0.00 0.00 0.00 86 1024.0
20240723171153 86 238 2.6 8.7 0.00 0.00 0.00 87 1023.6
20240723170651 85 235 2.6 9.6 0.00 0.00 0.00 87 1024.0
20240723170150 85 224 8.7 8.7 0.00 0.00 0.00 86 1023.6
20240723165648 85 223 6.1 9.6 0.00 0.00 0.00 85 1023.6
20240723165146 86 220 2.6 8.7 0.00 0.00 0.00 84 1024.0
20240723164643 85 213 7.8 8.7 0.00 0.00 0.00 82 1023.6
20240723164139 85 211 8.7 8.7 0.00 0.00 0.00 83 1023.6
20240723163637 86 218 7.8 11.3 0.00 0.00 0.00 83 1024.0
20240723163135 85 218 8.7 9.6 0.00 0.00 0.00 81 1024.0
20240723162632 85 215 7.8 10.4 0.00 0.00 0.00 84 1024.3
20240723162130 85 218 7.8 9.6 0.00 0.00 0.00 82 1024.0
20240723161628 85 204 7.8 9.6 0.00 0.00 0.00 81 1024.0
20240723161128 85 200 7.0 8.7 0.00 0.00 0.00 81 1024.3
20240723160625 85 206 7.0 9.6 0.00 0.00 0.00 81 1024.3
20240723160126 84 197 6.1 8.7 0.00 0.00 0.00 83 1024.0
20240723155623 85 208 6.1 8.7 0.00 0.00 0.00 85 1024.0
20240723155121 84 211 6.1 8.7 0.00 0.00 0.00 85 1024.3
20240723154619 85 213 7.0 7.8 0.00 0.00 0.00 85 1024.3
20240723154117 85 218 2.6 8.7 0.00 0.00 0.00 87 1024.0
20240723153616 85 215 7.8 8.7 0.00 0.00 0.00 88 1024.3
20240723153115 84 227 4.3 8.7 0.00 0.00 0.00 89 1024.0
20240723152613 85 205 6.1 8.7 0.00 0.00 0.00 88 1024.3
20240723152111 84 222 7.0 8.7 0.00 0.00 0.00 87 1024.0
20240723151609 84 218 8.7 8.7 0.00 0.00 0.00 87 1024.3
20240723151108 84 213 6.1 7.8 0.00 0.00 0.00 89 1024.0
20240723150607 84 210 4.3 7.8 0.00 0.00 0.00 89 1024.0
20240723150106 84 218 3.5 9.6 0.00 0.00 0.00 90 1024.0
20240723145603 84 219 5.2 8.7 0.00 0.00 0.00 90 1023.6
20240723145102 84 226 6.1 7.8 0.00 0.00 0.00 91 1023.6
20240723144601 84 213 7.0 8.7 0.00 0.00 0.00 90 1023.6
20240723144100 84 220 6.1 8.7 0.00 0.00 0.00 90 1024.0
20240723143558 84 228 3.5 8.7 0.00 0.00 0.00 90 1023.6
20240723143058 84 228 4.3 7.0 0.00 0.00 0.00 90 1023.6
20240723142556 84 219 7.0 7.8 0.00 0.00 0.00 89 1024.0
20240723142055 84 226 4.3 8.7 0.00 0.00 0.00 91 1023.6
20240723141554 84 229 5.2 7.8 0.00 0.00 0.00 91 1023.6
20240723141053 84 229 7.8 7.8 0.00 0.00 0.00 90 1023.6
20240723140552 84 215 2.6 8.7 0.00 0.00 0.00 91 1023.3
20240723140048 84 219 5.2 7.8 0.00 0.00 0.00 91 1023.3
20240723135547 84 228 2.6 7.8 0.00 0.00 0.00 91 1023.6
20240723135044 83 230 4.3 9.6 0.00 0.00 0.00 91 1023.3
20240723134544 84 220 4.3 7.8 0.00 0.00 0.00 91 1023.6
20240723134043 84 235 2.6 7.8 0.00 0.00 0.00 91 1023.6
20240723133543 83 217 3.5 8.7 0.00 0.00 0.00 91 1023.6
20240723133042 83 232 6.1 8.7 0.00 0.00 0.00 92 1023.6
20240723132541 83 227 7.8 8.7 0.00 0.00 0.00 92 1023.6
20240723132038 83 214 4.3 7.8 0.00 0.00 0.00 92 1024.0
20240723131535 83 222 8.7 8.7 0.00 0.00 0.00 92 1023.6
20240723131033 83 226 3.5 7.8 0.00 0.00 0.00 93 1023.6
20240723130530 83 219 2.6 8.7 0.00 0.00 0.00 93 1023.6
20240723130027 83 227 7.0 9.6 0.00 0.00 0.00 92 1023.6
20240723125525 83 220 5.2 8.7 0.00 0.00 0.00 92 1023.6
20240723125023 83 221 4.3 7.8 0.00 0.00 0.00 93 1023.6
20240723124519 83 213 6.1 9.6 0.00 0.00 0.00 93 1023.6
20240723124019 83 218 6.1 9.6 0.00 0.00 0.00 93 1023.6
20240723123517 83 220 6.1 9.6 0.00 0.00 0.00 93 1023.6
20240723123017 82 219 7.0 9.6 0.00 0.00 0.00 93 1023.6
20240723122513 83 226 6.1 7.0 0.00 0.00 0.00 93 1023.6
20240723122012 82 214 7.0 9.6 0.00 0.00 0.00 94 1023.6
20240723121510 82 221 6.1 8.7 0.00 0.00 0.00 94 1023.6
20240723121009 82 214 7.0 7.8 0.00 0.00 0.00 94 1023.6
20240723120509 83 218 3.5 8.7 0.00 0.00 0.00 94 1023.6
20240723120007 82 219 8.7 9.6 0.00 0.00 0.00 94 1023.3
20240723115505 82 215 6.1 7.8 0.00 0.00 0.00 94 1023.6
20240723115003 82 216 6.1 7.8 0.00 0.00 0.00 94 1023.3
20240723114500 82 238 3.5 7.8 0.00 0.00 0.00 94 1023.3
20240723113958 82 220 4.3 7.8 0.00 0.00 0.00 94 1023.3
20240723113457 82 241 2.6 7.8 0.00 0.00 0.00 95 1023.3
20240723112956 82 229 2.6 7.0 0.00 0.00 0.00 95 1023.3
20240723112454 82 222 3.5 7.8 0.00 0.00 0.00 95 1023.3
20240723111950 82 221 5.2 8.7 0.00 0.00 0.00 95 1023.0
20240723111448 82 238 2.6 7.0 0.00 0.00 0.00 95 1023.3
20240723110946 82 218 6.1 7.8 0.00 0.00 0.00 95 1023.0
20240723110445 82 224 6.1 7.0 0.00 0.00 0.00 95 1023.0
20240723105943 82 225 7.0 7.8 0.00 0.00 0.00 95 1023.0
20240723105442 82 218 6.1 7.8 0.00 0.00 0.00 95 1023.0
20240723104941 82 241 4.3 7.8 0.00 0.00 0.00 95 1023.0
20240723104440 82 217 2.6 7.8 0.00 0.00 0.00 95 1023.0
20240723103938 82 225 7.0 8.7 0.00 0.00 0.00 95 1022.6
20240723103437 82 220 7.8 8.7 0.00 0.00 0.00 95 1023.0
20240723102936 82 220 6.1 8.7 0.00 0.00 0.00 95 1022.6
20240723102434 82 216 5.2 7.8 0.00 0.00 0.00 95 1022.6
20240723101933 82 215 8.7 8.7 0.00 0.00 0.00 95 1022.6
20240723101431 82 217 5.2 9.6 0.00 0.00 0.00 95 1022.3
20240723100931 82 223 6.1 8.7 0.00 0.00 0.00 95 1023.0
20240723100429 82 218 7.0 8.7 0.00 0.00 0.00 94 1022.3
20240723095925 82 223 7.8 8.7 0.00 0.00 0.00 94 1023.0
20240723095424 82 224 10.4 10.4 0.00 0.00 0.00 94 1022.3
20240723094924 82 217 8.7 10.4 0.00 0.00 0.00 94 1022.3
20240723094423 82 219 9.6 11.3 0.00 0.00 0.00 94 1022.3
20240723093921 81 224 6.1 9.6 0.00 0.00 0.00 95 1022.3
20240723093420 81 223 8.7 10.4 0.00 0.00 0.00 96 1022.3
20240723092920 81 211 3.5 7.0 0.00 0.00 0.00 96 1022.3
20240723092418 81 216 6.1 7.8 0.00 0.00 0.00 96 1022.3
20240723091916 81 206 6.1 7.8 0.00 0.00 0.00 96 1022.3
20240723091415 81 201 7.8 7.8 0.00 0.00 0.00 96 1022.3
20240723090914 82 217 6.1 8.7 0.00 0.00 0.00 95 1021.9
20240723090412 82 217 7.0 10.4 0.00 0.00 0.00 95 1022.3
20240723085911 82 228 4.3 9.6 0.00 0.00 0.00 95 1021.9
20240723085409 81 229 6.1 7.8 0.00 0.00 0.00 95 1021.9
20240723084905 81 206 6.1 7.8 0.00 0.00 0.00 95 1021.9
20240723084403 82 212 4.3 10.4 0.00 0.00 0.00 94 1021.6
20240723083902 82 222 7.0 12.2 0.00 0.00 0.00 94 1021.6
20240723083359 82 221 7.8 12.2 0.00 0.00 0.00 94 1021.9
20240723082856 82 213 10.4 10.4 0.00 0.00 0.00 94 1022.3
20240723082354 82 232 9.6 13.9 0.00 0.00 0.00 94 1021.9
20240723081853 82 225 6.1 11.3 0.00 0.00 0.00 94 1021.6
20240723081352 82 239 6.1 11.3 0.00 0.00 0.00 94 1021.6
20240723080849 82 215 10.4 11.3 0.00 0.00 0.00 94 1021.9
20240723080347 82 237 4.3 12.2 0.00 0.00 0.00 94 1021.9
20240723075846 82 214 7.0 13.0 0.00 0.00 0.00 94 1021.6
20240723075346 82 227 7.8 11.3 0.00 0.00 0.00 93 1021.6
20240723074845 82 215 8.7 13.0 0.00 0.00 0.00 94 1021.9
20240723074344 82 219 11.3 14.8 0.00 0.00 0.00 94 1021.6
20240723073843 82 227 7.8 11.3 0.00 0.00 0.00 94 1021.9
20240723073341 82 220 10.4 13.0 0.00 0.00 0.00 94 1021.6
20240723072840 82 222 12.2 12.2 0.00 0.00 0.00 94 1021.6
20240723072338 82 231 11.3 13.0 0.00 0.00 0.00 94 1021.6
20240723071836 82 209 7.0 12.2 0.00 0.00 0.00 94 1021.6
20240723071333 82 223 10.4 12.2 0.00 0.00 0.00 94 1021.6
20240723070826 82 229 7.8 13.9 0.00 0.00 0.00 94 1021.6
20240723070326 82 219 10.4 13.9 0.00 0.00 0.00 93 1021.6
20240723065818 82 218 12.2 13.0 0.00 0.00 0.00 93 1021.9
20240723065256 82 233 7.8 12.2 0.00 0.00 0.00 94 1021.9
20240723064755 82 221 3.5 13.0 0.00 0.00 0.00 94 1021.9
20240723064254 82 220 6.1 11.3 0.00 0.00 0.00 93 1021.9
20240723063751 82 217 2.6 12.2 0.00 0.00 0.00 94 1021.6
20240723063250 82 225 9.6 12.2 0.00 0.00 0.00 94 1021.9
20240723062748 82 211 3.5 13.9 0.00 0.00 0.00 94 1021.6
20240723062248 82 221 4.3 12.2 0.00 0.00 0.00 94 1021.9
20240723061747 82 220 7.8 13.9 0.00 0.00 0.00 93 1021.9
20240723061246 82 228 11.3 11.3 0.00 0.00 0.00 94 1021.9
20240723060745 82 220 7.8 12.2 0.00 0.00 0.00 94 1021.9
20240723060243 82 220 6.1 13.0 0.00 0.00 0.00 94 1021.9
20240723055741 82 237 5.2 13.0 0.00 0.00 0.00 94 1021.6
20240723055240 82 222 2.6 13.0 0.00 0.00 0.00 93 1021.9
20240723054738 82 219 3.5 11.3 0.00 0.00 0.00 93 1022.3
20240723054238 82 229 7.0 13.0 0.00 0.00 0.00 93 1022.3
20240723053736 82 253 8.7 13.9 0.00 0.00 0.00 93 1021.9
20240723053236 82 254 4.3 13.9 0.00 0.00 0.00 93 1022.3
20240723052734 82 232 6.1 12.2 0.00 0.00 0.00 93 1022.3
20240723052232 82 220 9.6 13.9 0.00 0.00 0.00 93 1022.3
20240723051731 82 226 10.4 13.0 0.00 0.00 0.00 94 1022.3
20240723051205 82 231 7.8 11.3 0.00 0.00 0.00 94 1022.3
20240723050703 82 223 10.4 12.2 0.00 0.00 0.00 94 1022.6
20240723050201 82 229 8.7 12.2 0.00 0.00 0.00 94 1022.3
20240723045654 82 226 4.3 13.0 0.00 0.00 0.00 94 1022.3
20240723045152 82 228 9.6 11.3 0.00 0.00 0.00 94 1022.6
20240723044651 82 229 10.4 12.2 0.00 0.00 0.00 94 1022.6
20240723044150 82 223 10.4 11.3 0.00 0.00 0.00 94 1022.6
20240723043650 82 234 9.6 11.3 0.00 0.00 0.00 94 1022.6
20240723043149 82 221 3.5 12.2 0.00 0.00 0.00 94 1022.6
20240723042641 82 235 10.4 13.9 0.00 0.00 0.00 94 1022.6
20240723042140 82 221 10.4 12.2 0.00 0.00 0.00 93 1022.6
20240723041639 83 217 6.1 12.2 0.00 0.00 0.00 93 1022.3
20240723041137 82 221 6.1 11.3 0.00 0.00 0.00 93 1022.6
20240723040635 82 224 9.6 12.2 0.00 0.00 0.00 93 1022.6
20240723040133 82 213 11.3 11.3 0.00 0.00 0.00 93 1023.0
20240723035632 83 221 11.3 11.3 0.00 0.00 0.00 93 1023.0
20240723035132 82 230 8.7 12.2 0.00 0.00 0.00 93 1023.0
20240723034631 82 216 6.1 9.6 0.00 0.00 0.00 93 1022.6
20240723034129 82 228 10.4 11.3 0.00 0.00 0.00 93 1022.3
20240723033627 82 212 11.3 12.2 0.00 0.00 0.00 93 1022.3
20240723033126 82 227 9.6 12.2 0.00 0.00 0.00 94 1022.3
20240723032624 83 221 7.0 12.2 0.00 0.00 0.00 93 1022.3
20240723032122 82 225 9.6 13.0 0.00 0.00 0.00 93 1022.3
20240723031621 82 238 3.5 11.3 0.00 0.00 0.00 93 1021.9
20240723031120 82 223 4.3 11.3 0.00 0.00 0.00 93 1022.3
20240723030619 82 212 6.1 13.9 0.00 0.00 0.00 93 1022.3
20240723030117 82 225 12.2 15.6 0.00 0.00 0.00 93 1022.3
20240723025616 82 231 9.6 13.0 0.00 0.00 0.00 93 1022.3
20240723025116 82 223 9.6 13.0 0.00 0.00 0.00 94 1022.3
20240723024615 82 223 11.3 13.0 0.00 0.00 0.00 94 1022.3
20240723024113 83 235 5.2 11.3 0.00 0.00 0.00 94 1022.3
20240723023611 82 229 7.0 12.2 0.00 0.00 0.00 94 1022.3
20240723023110 83 228 9.6 13.9 0.00 0.00 0.00 93 1022.3
20240723022608 82 227 9.6 12.2 0.00 0.00 0.00 93 1021.9
20240723022107 83 220 3.5 12.2 0.00 0.00 0.00 93 1022.3
20240723021605 83 233 2.6 10.4 0.00 0.00 0.00 93 1021.9
20240723021103 82 221 9.6 10.4 0.00 0.00 0.00 93 1021.9
20240723020602 82 224 11.3 11.3 0.00 0.00 0.00 93 1021.9
20240723020101 82 219 7.8 12.2 0.00 0.00 0.00 93 1021.9
20240723015559 82 219 6.1 13.0 0.00 0.00 0.00 94 1021.9
20240723015059 82 224 10.4 11.3 0.00 0.00 0.00 94 1021.9
20240723014558 82 229 3.5 11.3 0.00 0.00 0.00 94 1021.9
20240723014056 82 215 7.8 9.6 0.00 0.00 0.00 94 1021.6
20240723013555 82 226 7.8 13.0 0.00 0.00 0.00 94 1021.6
20240723013053 82 219 7.8 10.4 0.00 0.00 0.00 94 1021.6
20240723012552 83 211 7.8 10.4 0.00 0.00 0.00 94 1021.6
20240723012050 82 210 7.0 10.4 0.00 0.00 0.00 93 1021.3
20240723011549 82 214 10.4 10.4 0.00 0.00 0.00 93 1021.3
20240723011048 82 210 10.4 12.2 0.00 0.00 0.00 92 1020.9
20240723010547 82 215 11.3 13.0 0.00 0.00 0.00 93 1021.3
20240723010046 82 209 10.4 12.2 0.00 0.00 0.00 93 1021.3
20240723005540 82 219 11.3 13.0 0.00 0.00 0.00 93 1020.9
20240723005039 82 220 7.0 13.0 0.00 0.00 0.00 93 1021.3
20240723004538 82 210 7.0 11.3 0.00 0.00 0.00 93 1021.3
20240723004037 82 219 9.6 11.3 0.00 0.00 0.00 93 1020.9
20240723003535 82 219 7.8 12.2 0.00 0.00 0.00 92 1020.9
20240723003035 82 203 7.8 11.3 0.00 0.00 0.00 92 1020.9
20240723002530 82 233 4.3 10.4 0.00 0.00 0.00 92 1020.9
20240723002030 83 207 8.7 9.6 0.00 0.00 0.00 92 1020.9
20240723001526 82 213 7.8 10.4 0.00 0.00 0.00 92 1020.6
20240723001024 82 212 7.8 9.6 0.00 0.00 0.00 92 1020.6
20240723000523 82 205 7.0 8.7 0.00 0.00 0.00 92 1020.6
20240723000021 82 213 7.8 9.6 0.00 0.00 0.00 92 1020.6
20240722235520 83 225 3.5 10.4 0.00 0.00 0.00 92 1020.6
20240722235020 82 214 7.8 10.4 0.00 0.00 0.00 92 1020.6
20240722234518 82 216 7.0 9.6 0.00 0.00 0.00 92 1020.9
20240722234017 82 209 7.0 9.6 0.00 0.00 0.00 91 1020.6
20240722233517 82 209 7.8 10.4 0.00 0.00 0.00 91 1020.6
20240722233016 82 204 8.7 10.4 0.00 0.00 0.00 90 1020.6
20240722232515 83 211 9.6 10.4 0.00 0.00 0.00 90 1020.6
20240722232014 82 209 5.2 10.4 0.00 0.00 0.00 90 1020.6
20240722231512 83 219 7.0 10.4 0.00 0.00 0.00 90 1020.9
20240722231012 82 237 8.7 10.4 0.00 0.00 0.00 90 1020.6
20240722230510 83 199 9.6 10.4 0.00 0.00 0.00 89 1020.6
20240722230009 82 214 6.1 10.4 0.00 0.00 0.00 89 1020.6
20240722225508 83 208 4.3 10.4 0.00 0.00 0.00 90 1020.9
20240722225006 83 204 8.7 11.3 0.00 0.00 0.00 88 1020.9
20240722224504 83 207 7.0 11.3 0.00 0.00 0.00 89 1020.6
20240722224002 83 208 7.8 11.3 0.00 0.00 0.00 88 1020.6
20240722223457 0 210 7.8 11.3 0.00 0.00 0.00 1020.6
20240722222956 0 212 10.4 10.4 0.00 0.00 0.00 1020.2
20240722222455 83 207 11.3 12.2 0.00 0.00 0.00 87 1020.6
20240722221955 83 212 7.8 11.3 0.00 0.00 0.00 87 1020.2
20240722221452 0 212 7.8 10.4 0.00 0.00 0.00 1020.2
20240722220950 0 212 9.6 12.2 0.00 0.00 0.00 1020.2
20240722220448 83 216 9.6 12.2 0.00 0.00 0.00 86 1019.9
20240722215948 83 201 7.0 12.2 0.00 0.00 0.00 86 1019.9
20240722215444 83 214 9.6 12.2 0.00 0.00 0.00 85 1019.9
20240722214943 83 210 9.6 11.3 0.00 0.00 0.00 86 1020.2
20240722214441 83 220 8.7 11.3 0.00 0.00 0.00 87 1019.9
20240722213940 82 203 6.1 11.3 0.00 0.00 0.00 87 1019.9
20240722213438 82 219 8.7 11.3 0.00 0.00 0.00 87 1019.6
20240722212935 82 208 8.7 11.3 0.00 0.00 0.00 86 1020.2
20240722212435 83 218 10.4 11.3 0.00 0.00 0.00 87 1019.9
20240722211931 82 209 9.6 12.2 0.00 0.00 0.00 87 1020.2
20240722211430 82 212 7.0 11.3 0.00 0.00 0.00 88 1019.9
20240722210927 82 213 6.1 13.0 0.00 0.00 0.00 87 1019.9
20240722210427 82 210 11.3 11.3 0.00 0.00 0.00 87 1020.2
20240722205926 82 229 9.6 11.3 0.00 0.00 0.00 87 1020.2
20240722205423 82 209 7.0 11.3 0.00 0.00 0.00 87 1020.2
20240722204921 82 212 7.8 11.3 0.00 0.00 0.00 87 1019.9
20240722204419 82 211 5.2 11.3 0.00 0.00 0.00 87 1020.2
20240722203917 82 202 4.3 13.0 0.00 0.00 0.00 87 1020.2
20240722203416 82 208 8.7 12.2 0.00 0.00 0.00 88 1020.2